Location: Bercimuel
(41.3983°N, 3.5711°W)
Time: 20:33:17
(UTC+00:00)

CZ-4B R/B - Pass Details

Date: 15 May 2026
Orbit: 807 x 881 km, 98.9° (Epoch: 6 June)

Event Time Altitude Azimuth Distance (km) Brightness Sun altitude
Exits shadow 20:05:20 - 145° (SE) 2,856 5.4 -7.2°
Reaches altitude 10° 20:06:12 10° 143° (SE) 2,529 5.1 -7.3°
Maximum altitude 20:11:35 48° 70° (ENE) 1,126 3.7 -8.1°
Drops below altitude 10° 20:16:57 10° 357° (N) 2,519 6.2 -9.0°
Sets 20:19:23 0° 352° (N) 3,451 7.1 -9.3°
